User: anonymous   Login
Location: Deep South Regional Star Gaze
(30.9929°N, 90.9586°W)
Time: 14:17:58
(UTC-06:00)
Language:

H-2A R/B - Orbit

View from above orbital plane
View from above orbital plane
View from above satellite
View from above satellite

Ground track
Ground track

The orbit data is extracted from the following two-line orbital elements,

1 26899U 01038B   15023.89345872  .00001360  00000-0  49621-3 0  1226
2 26899 028.2112 058.8206 7148106 331.6178 035.2692 02.44316582114915
Epoch (UTC): 23 January 2015 21:26:34
Eccentricity: 0.7148106
inclination: 28.2112°
perigee height: 263 km
apogee height: 33553 km
right ascension of ascending node: 58.8206°
argument of perigee: 331.6178°
revolutions per day: 2.44316582
mean anomaly at epoch: 35.2692°
orbit number at epoch: 11491

The dashed part of the orbit path shows where the satellite is in the earth's shadow,  

DLR